Preview of NWS' New Version of Forecast
This preview is not operational and should not be used for support decisions.

Regional Weather Roundup (RWR)

Issued by Huntsville, AL (HUN)

                            
076 
ASUS44 KHUN 212310
RWRHUN
       
WEATHER ROUNDUP FOR THE TENNESSEE VALLEY
NATIONAL WEATHER SERVICE HUNTSVILLE AL
600 PM CDT THU JUN 21 2018

ALZ001>004-220000-
NORTHWEST ALABAMA
  
CITY           SKY/WX    TMP DP  RH WIND       PRES   REMARKS
COURTLAND HCN    N/A     86 N/A N/A W12         N/A                   
RUSSELLVILLE     N/A     81 N/A N/A MISG        N/A                   
SHOALS AIRPORT FAIR      84  70  62 W12       29.79F                  
SHOALS TVA RES   N/A     84 N/A N/A MISG        N/A                   
$$

ALZ005>007-016-220000-
NORTH CENTRAL ALABAMA
  
CITY           SKY/WX    TMP DP  RH WIND       PRES   REMARKS
CULLMAN AG STN   N/A     81 N/A N/A SW8         N/A                   
DECATUR AP     FAIR      83  72  69 SW15      29.80S                  
HUNTSVILLE AP  FAIR      84  74  71 SW14      29.80S HX  91           
MERIDIANVILLE  MOSUNNY   83  72  69 MISG      29.80S                  
REDSTONE ARSN  PTSUNNY   83  73  71 SW12      29.79S                  
VINEMONT AP    FAIR      80  71  72 SW8       29.86S                  
$$
 
ALZ008>010-220000-
NORTHEAST ALABAMA
  
CITY           SKY/WX    TMP DP  RH WIND       PRES   REMARKS
ALBERTVILLE    FAIR      81  73  78 SW12G17   29.84S                  
FORT PAYNE     PTSUNNY   81  70  69 SW8       29.83R                  
SCOTTSBORO AP  FAIR      82  75  78 SW9       29.81S                  
SCOTTSBORO HCN   N/A     81 N/A N/A MISG        N/A                   
VALLEY HEAD      N/A     79 N/A N/A MISG        N/A                   
$$

TNZ076-096-097-220000-
SOUTHEASTERN MIDDLE TENNESSEE
  
CITY           SKY/WX    TMP DP  RH WIND       PRES   REMARKS
TULLAHOMA      MOSUNNY   82  72  69 SW9       29.79S                  
WINCHESTER     SUNNY     82  72  69 SW10G17   29.79F                  
$$
 
...SURROUNDING SITES...
  
CITY           SKY/WX    TMP DP  RH WIND       PRES   REMARKS
ATLANTA        LGT RAIN  77  71  82 SW9       29.88R                  
ANNISTON       FAIR      83  72  69 SW7       29.84F                  
BIRMINGHAM     PTSUNNY   82  71  69 SW14      29.86F                  
CHATTANOOGA    FAIR      85  69  58 SW12      29.79F                  
CORINTH        FAIR      86  70  58 SW10      29.75F HX  90           
DALTON         FAIR      79  72  78 SW7       29.83F                  
GADSDEN        FAIR      83  75  77 MISG      29.84S HX  90           
GOLDEN TRNGL   FAIR      87  74  64 SW8G17    29.81F HX  95           
HALEYVILLE     FAIR      83  75  77 SW12      29.84F HX  90           
JACKSON TN     TSTM      69  69 100 W32G47    29.80  VSB 1/4          
MEMPHIS        PTSUNNY   83  69  62 CALM      29.73S                  
NASHVILLE      NOT AVBL                                               
OXFORD MS      FAIR      86  72  62 SW13G20   29.79F HX  92           
ROME           PTSUNNY   83  73  72 SW7       29.82F                  
SAVANNAH       MOSUNNY   86  72  62 S9        29.74F HX  92           
SELMER         MOSUNNY   84  72  65 VRB7G13   29.74F                  
TUPELO         FAIR      87  72  60 S8        29.77F HX  93           
TUSCALOOSA     FAIR      85  74  69 SW10      29.83F HX  92           
$$

...GULF COAST WEATHER...
  
CITY           SKY/WX    TMP DP  RH WIND       PRES   REMARKS
GULFPORT       FAIR      80  72  76 NE5       29.89F                  
PASCAGOULA     FAIR      79  74  84 N5        29.90F                  
MOBILE         CLOUDY    74  71  91 CALM      29.92F                  
GULF SHORES    FAIR      84  74  71 MISG      29.90F HX  92           
PENSACOLA      PTSUNNY   85  72  65 SW10      29.90  HX  91           
DESTIN         FAIR      87  73  62 W8G17     29.91R HX  94           
PANAMA CITY    FAIR      87  76  70 W15       29.91R HX  97           
APPALACHICOLA  FAIR      89  75  63 W14       29.89S HX  99           
$$